This is the latest recevied weather packets stored in our database for station/object CH73TE-13. If no packets are shown the sender has not sent any weather packets the latest 1 day(s).
| Time | Temp. | Humidity | Pressure | Rain* | Wind** | Luminosity | Snow |
|---|---|---|---|---|---|---|---|
| 1778165941 | 18.89° C | 52% | 969 hPa | 0.25 mm | - | 0 W/m² | - |
| 1778165641 | 18.33° C | 51% | 969 hPa | 0.25 mm | - | 0 W/m² | - |
| 1778165281 | 18.89° C | 50% | 969 hPa | 0.25 mm | - | 0 W/m² | - |
| 1778164980 | 17.78° C | 53% | 969 hPa | 0.25 mm | - | 0 W/m² | - |
| 1778164680 | 18.33° C | 52% | 969 hPa | 0.25 mm | - | 0 W/m² | - |
| 1778164380 | 18.33° C | 52% | 969 hPa | 0.25 mm | - | 0 W/m² | - |
| 1778164081 | 17.78° C | 53% | 969 hPa | 0.25 mm | - | 0 W/m² | - |
| 1778163781 | 18.33° C | 52% | 969 hPa | 0.25 mm | - | 0 W/m² | - |
| 1778163481 | 18.33° C | 54% | 969 hPa | 0.25 mm | - | 0 W/m² | - |
| 1778163180 | 18.33° C | 54% | 969 hPa | 0.25 mm | - | 0 W/m² | - |
| 1778162880 | 17.78° C | 55% | 969 hPa | 0.25 mm | - | 0 W/m² | - |
| 1778162521 | 17.78° C | 55% | 969 hPa | 0.25 mm | - | 0 W/m² | - |
| 1778162221 | 17.22° C | 55% | 969 hPa | 0.25 mm | - | 0 W/m² | - |
| 1778161921 | 17.78° C | 52% | 969 hPa | 0.25 mm | - | 0 W/m² | - |
| 1778161621 | 18.33° C | 54% | 969 hPa | 0.25 mm | - | 0 W/m² | - |
| 1778161320 | 17.78° C | 54% | 969 hPa | 0.25 mm | - | 0 W/m² | - |
| 1778161020 | 18.33° C | 56% | 969 hPa | 0.25 mm | - | 0 W/m² | - |
| 1778160721 | 18.33° C | 56% | 969 hPa | 0.25 mm | - | 0 W/m² | - |
| 1778160421 | 17.78° C | 56% | 969 hPa | 0.25 mm | - | 0 W/m² | - |
| 1778160121 | 17.78° C | 58% | 969 hPa | 0.25 mm | - | 0 W/m² | - |
| 1778159760 | 17.78° C | 55% | 969 hPa | 0.25 mm | - | 0 W/m² | - |
| 1778159460 | 17.78° C | 56% | 969 hPa | 0.25 mm | - | 0 W/m² | - |
| 1778159160 | 17.78° C | 58% | 969 hPa | 0.25 mm | - | 0 W/m² | - |
| 1778158861 | 17.22° C | 55% | 969 hPa | 0.25 mm | - | 0 W/m² | - |
| 1778158561 | 17.78° C | 56% | 969 hPa | 0.25 mm | - | 0 W/m² | - |
* Rain since midnight (hover to see other rain measurements)
** Current wind speed in m/s (hover to see current wind gust speed)